QPF
0.00 0.00 0.00 0.00 0.00 0.00 0.00 0.00 0.00 0.00 0.00 0.00 0.00 0.02 0.04 0.01 0.00 0.00 0.00 0.00 0.02 0.03 0.06 0.08 0.08 0.07 0.08 0.08 0.05 0.03 0.03 0.03 0.06 0.04 0.02 0.01 0.00 0.00 0.00 0.00 0.00 0.00 0.00
0.00 0.00 0.00 0.00 0.00 0.00 0.00 0.00 0.00 0.00 0.00 0.00 0.00 0.02 0.00 0.00 0.00 0.00 0.00 0.00 0.00 0.00 0.02 0.04 0.04 0.07 0.09 0.08 0.06 0.02 0.01 0.00 0.01 0.02 0.03 0.01 0.01 0.00 0.00 0.00 0.00 0.00 0.00
0.00 0.00 0.00 0.00 0.00 0.00 0.00 0.00 0.00 0.00 0.00 0.00 0.00 0.00 0.00 0.00 0.00 0.00 0.00 0.00 0.00 0.00 0.02 0.03 0.03 0.03 0.03 0.03 0.03 0.01 0.00 0.00 0.00 0.01 0.01 0.01 0.01 0.00 0.00 0.00 0.00 0.00 0.00
0.00 0.00 0.00 0.00 0.00 0.00 0.00 0.00 0.00 0.00 0.00 0.00 0.00 0.00 0.00 0.00 0.00 0.00 0.00 0.00 0.00 0.00 0.00 0.02 0.01 0.01 0.01 0.01 0.00 0.01 0.01 0.00 0.00 0.00 0.00 0.00 0.00 0.00 0.00 0.00 0.00 0.00 0.00
0.00 0.00 0.00 0.00 0.00 0.00 0.00 0.00 0.00 0.00 0.00 0.00 0.00 0.00 0.00 0.00 0.00 0.00 0.00 0.00 0.00 0.00 0.00 0.00 0.00 0.00 0.00 0.00 0.00 0.00 0.00 0.00 0.00 0.00 0.00 0.00 0.00 0.00 0.00 0.00 0.00 0.00 0.00
0.00 0.00 0.00 0.00 0.00 0.00 0.00 0.00 0.00 0.00 0.00 0.00 0.00 0.00 0.00 0.00 0.00 0.00 0.00 0.00 0.00 0.00 0.00 0.00 0.00 0.00 0.00 0.00 0.00 0.00 0.00 0.00 0.00 0.00 0.00 0.00 0.00 0.00 0.00 0.00 0.00 0.00 0.00
0.00 0.00 0.00 0.00 0.00 0.00 0.00 0.00 0.00 0.00 0.00 0.00 0.00 0.00 0.00 0.00 0.00 0.00 0.00 0.00 0.00 0.00 0.00 0.00 0.00 0.00 0.00 0.00 0.00 0.00 0.00 0.00 0.00 0.00 0.00 0.00 0.00 0.00 0.00 0.00 0.00 0.00 0.00
0.00 0.00 0.00 0.00 0.00 0.00 0.00 0.00 0.00 0.00 0.00 0.00 0.00 0.00 0.00 0.00 0.00 0.00 0.00 0.00 0.00 0.00 0.00 0.00 0.00 0.00 0.00 0.00 0.00 0.00 0.00 0.00 0.00 0.00 0.00 0.00 0.00 0.00 0.00 0.01 0.00 0.00 0.00
0.00 0.00 0.00 0.00 0.00 0.00 0.00 0.00 0.00 0.00 0.00 0.00 0.00 0.00 0.00 0.00 0.00 0.00 0.00 0.00 0.00 0.00 0.00 0.00 0.00 0.00 0.00 0.00 0.00 0.00 0.00 0.00 0.00 0.00 0.00 0.00 0.00 0.00 0.00 0.00 0.01 0.01 0.01
0.00 0.00 0.00 0.00 0.00 0.00 0.00 0.00 0.00 0.00 0.00 0.00 0.00 0.00 0.00 0.00 0.00 0.00 0.00 0.00 0.00 0.00 0.00 0.00 0.00 0.00 0.00 0.00 0.00 0.00 0.00 0.00 0.00 0.00 0.00 0.00 0.00 0.00 0.00 0.00 0.00 0.00 0.01
0.00 0.00 0.00 0.00 0.00 0.00 0.00 0.00 0.00 0.00 0.00 0.00 0.00 0.00 0.00 0.00 0.00 0.00 0.00 0.00 0.00 0.00 0.00 0.00 0.00 0.00 0.00 0.00 0.00 0.00 0.00 0.00 0.00 0.00 0.00 0.00 0.00 0.00 0.00 0.00 0.00 0.00 0.00
0.00 0.00 0.00 0.00 0.00 0.00 0.00 0.00 0.00 0.00 0.00 0.00 0.00 0.00 0.00 0.00 0.00 0.00 0.00 0.00 0.00 0.00 0.00 0.00 0.00 0.00 0.00 0.00 0.00 0.00 0.00 0.00 0.00 0.00 0.00 0.00 0.00 0.00 0.00 0.00 0.00 0.00 0.00
0.00 0.00 0.00 0.00 0.00 0.00 0.00 0.00 0.00 0.00 0.00 0.00 0.00 0.00 0.00 0.00 0.00 0.00 0.00 0.00 0.00 0.00 0.00 0.00 0.00 0.00 0.00 0.00 0.00 0.00 0.00 0.00 0.00 0.00 0.00 0.00 0.00 0.00 0.00 0.00 0.00 0.00 0.00
0.00 0.00 0.00 0.00 0.00 0.00 0.00 0.00 0.00 0.00 0.00 0.00 0.00 0.00 0.00 0.00 0.00 0.00 0.00 0.00 0.00 0.00 0.00 0.00 0.00 0.00 0.00 0.00 0.00 0.00 0.00 0.00 0.00 0.00 0.00 0.00 0.00 0.00 0.00 0.00 0.00 0.00 0.00
0.00 0.00 0.00 0.00 0.00 0.00 0.00 0.00 0.00 0.00 0.00 0.00 0.00 0.00 0.00 0.00 0.00 0.00 0.00 0.00 0.00 0.00 0.00 0.00 0.00 0.00 0.00 0.00 0.00 0.00 0.00 0.00 0.00 0.00 0.00 0.00 0.00 0.00 0.00 0.00 0.00 0.00 0.00
0.00 0.00 0.00 0.00 0.00 0.00 0.00 0.00 0.00 0.00 0.00 0.00 0.00 0.00 0.00 0.00 0.00 0.00 0.00 0.00 0.00 0.00 0.00 0.00 0.00 0.00 0.00 0.00 0.00 0.00 0.00 0.00 0.00 0.00 0.00 0.00 0.00 0.00 0.00 0.00 0.00 0.00 0.00
0.00 0.00 0.00 0.00 0.00 0.00 0.00 0.00 0.00 0.00 0.00 0.00 0.00 0.00 0.00 0.00 0.00 0.00 0.00 0.00 0.00 0.00 0.00 0.00 0.00 0.00 0.00 0.00 0.00 0.00 0.00 0.00 0.00 0.00 0.00 0.00 0.00 0.00 0.00 0.00 0.00 0.00 0.00
0.00 0.00 0.00 0.00 0.00 0.00 0.00 0.00 0.00 0.00 0.00 0.00 0.00 0.00 0.00 0.00 0.00 0.00 0.00 0.00 0.00 0.00 0.00 0.00 0.00 0.00 0.00 0.00 0.00 0.00 0.00 0.00 0.00 0.00 0.00 0.00 0.00 0.00 0.00 0.00 0.00 0.00 0.00
0.00 0.00 0.00 0.00 0.00 0.00 0.00 0.00 0.00 0.00 0.00 0.00 0.00 0.00 0.00 0.00 0.00 0.00 0.00 0.00 0.00 0.00 0.00 0.00 0.00 0.00 0.00 0.00 0.00 0.00 0.00 0.00 0.00 0.00 0.00 0.00 0.00 0.00 0.00 0.00 0.00 0.00 0.00
0.00 0.00 0.00 0.00 0.00 0.00 0.00 0.00 0.00 0.00 0.00 0.00 0.00 0.00 0.00 0.00 0.00 0.00 0.00 0.00 0.00 0.00 0.00 0.00 0.00 0.00 0.00 0.00 0.00 0.00 0.00 0.00 0.00 0.00 0.00 0.00 0.00 0.00 0.00 0.00 0.00 0.00 0.00
0.00 0.00 0.00 0.00 0.00 0.00 0.00 0.00 0.00 0.00 0.00 0.00 0.00 0.00 0.00 0.00 0.00 0.00 0.00 0.00 0.00 0.00 0.00 0.00 0.00 0.00 0.00 0.00 0.00 0.00 0.00 0.00 0.00 0.00 0.00 0.00 0.00 0.00 0.01 0.01 0.01 0.01 0.01
0.00 0.00 0.00 0.00 0.00 0.00 0.00 0.00 0.00 0.00 0.00 0.00 0.00 0.00 0.00 0.00 0.00 0.00 0.00 0.00 0.00 0.00 0.00 0.00 0.00 0.00 0.00 0.00 0.00 0.00 0.00 0.00 0.00 0.00 0.00 0.00 0.00 0.00 0.00 0.00 0.01 0.01 0.01
0.00 0.00 0.00 0.00 0.00 0.00 0.00 0.00 0.00 0.00 0.00 0.00 0.00 0.00 0.00 0.00 0.00 0.00 0.00 0.00 0.00 0.00 0.00 0.00 0.00 0.00 0.00 0.00 0.00 0.00 0.00 0.00 0.00 0.01 0.01 0.01 0.00 0.00 0.00 0.01 0.01 0.01 0.00
0.00 0.00 0.00 0.00 0.00 0.00 0.00 0.00 0.00 0.00 0.00 0.00 0.00 0.00 0.00 0.00 0.00 0.00 0.00 0.00 0.00 0.00 0.00 0.00 0.00 0.00 0.00 0.00 0.00 0.00 0.00 0.01 0.01 0.01 0.01 0.01 0.00 0.00 0.01 0.00 0.00 0.00 0.00
0.00 0.00 0.00 0.00 0.00 0.00 0.00 0.00 0.00 0.00 0.00 0.00 0.00 0.00 0.00 0.00 0.00 0.00 0.00 0.00 0.00 0.00 0.00 0.00 0.01 0.01 0.01 0.00 0.01 0.01 0.01 0.01 0.01 0.01 0.01 0.01 0.01 0.00 0.00 0.00 0.00 0.00 0.00
0.00 0.00 0.00 0.00 0.00 0.00 0.00 0.00 0.00 0.00 0.00 0.00 0.00 0.00 0.00 0.00 0.00 0.00 0.00 0.00 0.00 0.00 0.00 0.00 0.00 0.00 0.01 0.01 0.01 0.01 0.01 0.01 0.01 0.01 0.02 0.01 0.00 0.00 0.00 0.00 0.00 0.00 0.00
MSLP
1022.72 1023.08 1023.44 1023.87 1023.71 1023.20 1022.37 1021.45 1020.51 1019.57 1018.54 1017.51 1016.26 1014.95 1014.59 1014.95 1015.33 1015.61 1015.66 1015.36 1014.84 1014.02 1013.42 1013.80 1014.00 1013.64 1013.96 1013.79 1014.43 1014.67 1014.79 1015.30 1015.64 1015.99 1016.69 1017.11 1017.56 1017.76 1017.88 1018.05 1018.05 1018.35 1018.50
1022.95 1023.46 1023.78 1023.82 1023.75 1023.59 1022.89 1021.96 1021.44 1020.45 1019.38 1018.46 1017.31 1016.25 1015.83 1016.36 1016.82 1017.11 1016.99 1016.91 1016.28 1015.36 1014.46 1014.22 1014.08 1013.93 1013.89 1014.21 1014.12 1014.13 1014.45 1015.07 1015.30 1015.84 1016.59 1016.97 1017.59 1017.60 1017.53 1017.59 1017.56 1017.77 1018.01
1023.06 1023.40 1023.74 1023.90 1023.76 1023.68 1023.31 1022.79 1022.19 1021.29 1020.25 1019.35 1018.43 1017.46 1017.44 1017.71 1017.90 1018.08 1017.94 1017.95 1017.68 1016.78 1015.87 1015.11 1014.69 1014.22 1013.74 1014.00 1013.76 1013.72 1013.90 1014.60 1015.28 1015.48 1015.70 1016.38 1016.31 1016.82 1016.80 1017.05 1017.17 1017.42 1017.53
1022.97 1023.49 1023.82 1023.96 1023.94 1024.01 1024.06 1023.65 1022.91 1022.23 1021.21 1020.65 1019.82 1019.92 1020.02 1019.97 1020.21 1019.90 1019.52 1019.36 1019.00 1018.35 1017.49 1016.58 1015.93 1015.37 1015.20 1014.64 1014.31 1013.78 1014.03 1014.19 1015.08 1015.77 1016.01 1016.19 1016.47 1016.44 1016.44 1016.50 1016.73 1016.94 1017.07
1022.77 1023.44 1023.92 1024.13 1024.15 1024.08 1023.91 1023.94 1023.50 1022.93 1022.54 1022.20 1021.60 1021.17 1021.04 1021.31 1021.26 1021.15 1020.50 1020.23 1020.19 1019.65 1019.16 1018.29 1017.77 1016.94 1016.30 1015.52 1015.30 1015.21 1014.71 1014.79 1015.00 1015.48 1016.16 1016.57 1016.75 1016.97 1017.08 1016.65 1016.48 1016.59 1016.69
1022.83 1023.31 1023.79 1023.95 1024.16 1024.15 1023.84 1023.72 1023.59 1023.27 1023.23 1023.18 1022.85 1022.53 1022.23 1022.06 1021.72 1021.77 1021.32 1021.17 1021.38 1020.76 1020.70 1019.71 1019.27 1018.38 1017.60 1016.79 1016.30 1016.51 1016.08 1015.85 1015.78 1015.88 1016.24 1016.71 1016.96 1017.14 1017.26 1017.40 1017.24 1017.24 1016.91
1022.52 1023.11 1023.40 1023.85 1024.05 1024.38 1024.12 1023.71 1023.72 1023.72 1023.59 1023.45 1023.46 1023.63 1023.20 1022.74 1022.89 1022.85 1022.60 1022.49 1022.14 1021.76 1021.61 1021.28 1020.35 1019.88 1019.15 1017.76 1018.08 1017.68 1017.69 1017.54 1017.30 1017.10 1017.05 1017.05 1017.33 1017.55 1017.43 1017.76 1017.93 1017.89 1017.81
1022.02 1022.74 1023.55 1023.79 1024.02 1024.22 1024.48 1024.14 1024.07 1024.14 1024.21 1024.07 1023.99 1023.98 1023.99 1023.51 1023.34 1023.37 1023.45 1023.61 1023.48 1022.73 1022.74 1022.75 1021.31 1020.54 1020.32 1019.43 1019.31 1018.49 1019.27 1019.27 1019.26 1018.49 1018.30 1017.41 1018.20 1018.11 1017.69 1018.06 1018.30 1018.50 1018.20
1021.40 1022.38 1023.24 1023.93 1024.38 1024.50 1024.68 1024.51 1024.48 1024.32 1024.41 1024.62 1024.58 1024.56 1024.49 1024.51 1024.33 1023.97 1023.74 1023.86 1023.78 1023.03 1022.93 1022.39 1021.74 1021.24 1020.53 1020.05 1019.99 1020.14 1020.32 1020.21 1020.11 1019.45 1019.30 1019.01 1018.93 1018.63 1018.69 1018.87 1018.82 1018.81 1018.61
1020.96 1021.92 1022.82 1023.58 1024.26 1024.82 1024.91 1025.09 1024.72 1024.69 1024.68 1024.70 1024.87 1024.94 1024.90 1024.81 1024.66 1024.47 1024.30 1024.00 1023.51 1023.49 1023.07 1022.69 1022.39 1022.23 1021.43 1021.02 1021.16 1020.92 1020.69 1020.82 1020.39 1020.38 1020.42 1019.94 1019.81 1019.81 1019.69 1019.63 1019.62 1019.69 1019.57
1020.20 1021.40 1022.39 1023.31 1024.08 1024.71 1025.16 1025.31 1025.36 1025.05 1025.10 1025.15 1025.14 1025.11 1025.13 1025.09 1025.06 1024.97 1024.74 1024.53 1024.30 1024.21 1023.60 1023.33 1022.95 1022.53 1022.87 1021.93 1021.94 1021.38 1021.24 1021.41 1020.55 1020.53 1020.43 1020.34 1020.25 1020.18 1020.09 1020.13 1020.03 1020.11 1020.29
1019.35 1020.59 1021.88 1023.01 1023.81 1024.46 1025.04 1025.55 1025.68 1025.59 1025.61 1025.52 1025.42 1025.40 1025.43 1025.31 1025.25 1025.33 1025.19 1024.91 1024.56 1024.31 1024.32 1024.15 1023.80 1023.61 1023.41 1023.11 1022.69 1022.51 1022.26 1021.76 1021.16 1021.18 1020.85 1020.70 1020.86 1020.63 1020.39 1020.39 1020.44 1020.45 1020.37
1018.90 1020.24 1021.56 1022.68 1023.49 1024.20 1024.94 1025.45 1025.93 1026.03 1026.09 1026.04 1025.83 1025.77 1025.76 1025.81 1025.78 1025.66 1025.39 1025.13 1024.89 1024.72 1024.54 1024.55 1024.38 1024.06 1023.67 1023.34 1022.76 1022.55 1021.82 1021.71 1021.38 1021.68 1021.77 1021.17 1021.37 1020.96 1020.74 1020.95 1020.82 1020.31 1020.02
1018.64 1020.16 1021.49 1022.56 1023.48 1024.24 1024.87 1025.49 1025.98 1026.40 1026.56 1026.47 1026.32 1026.25 1026.11 1025.97 1025.92 1025.82 1025.65 1025.43 1025.18 1024.99 1024.76 1024.48 1024.22 1023.79 1023.58 1023.38 1023.12 1022.65 1022.38 1022.04 1022.32 1022.37 1021.94 1021.77 1021.52 1021.44 1021.29 1021.23 1020.88 1020.22 1020.13
1018.83 1020.36 1021.58 1022.61 1023.73 1024.70 1025.29 1025.71 1026.22 1026.59 1026.81 1026.84 1026.85 1026.88 1026.73 1026.49 1026.28 1026.03 1025.80 1025.62 1025.49 1025.45 1025.41 1025.04 1024.63 1024.23 1023.79 1023.50 1023.41 1023.09 1022.39 1022.47 1022.52 1022.09 1021.77 1021.69 1021.61 1021.76 1021.67 1021.22 1021.00 1020.92 1020.41
1018.86 1020.29 1021.66 1022.83 1023.86 1024.80 1025.47 1026.16 1026.51 1026.85 1027.00 1027.02 1027.07 1027.10 1026.95 1026.73 1026.58 1026.39 1026.18 1025.93 1025.72 1025.51 1025.26 1024.95 1024.78 1024.65 1024.42 1024.33 1024.10 1023.78 1023.29 1022.76 1022.35 1022.11 1021.83 1021.81 1021.39 1021.18 1021.24 1020.88 1020.91 1021.01 1020.41
1019.26 1020.52 1021.76 1023.00 1024.29 1025.40 1026.16 1026.36 1026.69 1027.03 1027.10 1027.16 1027.21 1027.21 1027.11 1026.93 1026.75 1026.64 1026.35 1026.07 1025.85 1025.67 1025.40 1025.09 1024.80 1024.51 1024.26 1023.96 1023.86 1023.58 1023.33 1023.08 1022.54 1022.07 1021.86 1021.87 1021.32 1021.37 1020.87 1020.89 1020.65 1020.42 1019.55
1020.29 1021.39 1022.61 1023.93 1025.09 1025.86 1026.42 1026.79 1027.02 1027.14 1027.20 1027.21 1027.28 1027.34 1027.26 1027.06 1026.89 1026.73 1026.45 1026.21 1025.96 1025.72 1025.50 1025.20 1024.90 1024.66 1024.43 1024.23 1024.19 1023.99 1023.63 1023.03 1022.35 1021.94 1021.99 1021.70 1021.23 1021.05 1020.95 1020.80 1020.34 1019.93 1019.10
1021.48 1022.56 1023.81 1024.93 1026.14 1026.80 1027.21 1027.52 1027.67 1027.50 1027.36 1027.33 1027.40 1027.37 1027.30 1027.17 1026.99 1026.80 1026.59 1026.28 1026.00 1025.77 1025.55 1025.28 1024.93 1024.72 1024.38 1024.17 1023.95 1023.83 1023.38 1022.76 1022.16 1021.83 1021.57 1021.39 1021.09 1021.05 1020.84 1020.48 1019.92 1019.17 1018.64
1023.75 1024.44 1025.22 1026.09 1027.05 1027.53 1027.96 1027.97 1027.84 1027.66 1027.50 1027.55 1027.58 1027.50 1027.37 1027.22 1026.95 1026.81 1026.53 1026.21 1026.02 1025.78 1025.57 1025.25 1025.06 1024.63 1024.27 1024.05 1023.73 1023.49 1023.09 1022.52 1021.83 1021.55 1021.49 1021.02 1020.57 1020.39 1020.24 1020.08 1019.70 1019.06 1018.71
1025.34 1025.93 1026.72 1027.01 1027.49 1027.97 1028.16 1028.06 1027.85 1027.57 1027.75 1027.81 1027.71 1027.56 1027.32 1027.20 1026.97 1026.73 1026.46 1026.23 1025.90 1025.63 1025.49 1025.21 1024.82 1024.44 1023.98 1023.54 1023.24 1022.94 1022.52 1022.15 1021.58 1021.23 1020.92 1020.56 1020.30 1020.03 1019.82 1019.62 1019.19 1018.71 1018.24
1026.66 1026.96 1027.35 1027.74 1028.17 1028.37 1028.25 1028.01 1027.82 1027.87 1027.97 1027.89 1027.75 1027.49 1027.30 1027.08 1026.87 1026.61 1026.37 1026.09 1025.75 1025.42 1025.14 1024.82 1024.45 1024.05 1023.58 1023.05 1022.65 1022.24 1021.97 1021.69 1021.45 1021.10 1020.74 1020.39 1020.03 1019.59 1019.15 1018.60 1018.15 1017.68 1017.35
1027.39 1027.73 1027.92 1028.18 1028.44 1028.41 1028.29 1028.19 1028.02 1028.12 1028.05 1027.90 1027.60 1027.36 1027.22 1027.05 1026.78 1026.42 1026.07 1025.88 1025.58 1025.33 1025.01 1024.61 1024.21 1023.72 1023.24 1022.84 1022.40 1021.93 1021.62 1021.45 1021.16 1020.87 1020.36 1019.75 1019.38 1018.94 1018.48 1018.14 1017.60 1017.25 1017.03
1028.10 1028.42 1028.52 1028.62 1028.48 1028.46 1028.52 1028.49 1028.42 1028.30 1028.19 1027.93 1027.67 1027.53 1027.31 1026.94 1026.73 1026.53 1026.19 1025.92 1025.68 1025.38 1025.05 1024.67 1024.24 1023.71 1023.19 1022.75 1022.33 1021.89 1021.55 1021.20 1020.67 1020.24 1019.93 1019.54 1019.06 1018.67 1018.07 1017.72 1017.43 1017.10 1016.75
1028.78 1028.98 1029.01 1028.73 1028.71 1028.82 1028.71 1028.66 1028.57 1028.42 1028.20 1027.98 1027.78 1027.52 1027.14 1026.94 1026.66 1026.30 1026.05 1025.85 1025.63 1025.37 1024.89 1024.53 1024.09 1023.60 1023.07 1022.65 1022.10 1021.62 1021.12 1020.68 1020.28 1019.72 1019.49 1019.11 1018.63 1018.22 1017.92 1017.56 1017.10 1016.65 1016.40
1029.25 1029.06 1029.07 1029.07 1029.06 1028.97 1028.78 1028.68 1028.67 1028.58 1028.39 1028.11 1027.72 1027.55 1027.29 1026.91 1026.51 1026.18 1025.80 1025.58 1025.12 1024.66 1024.32 1023.95 1023.49 1023.09 1022.55 1021.91 1021.39 1020.91 1020.39 1019.90 1019.56 1019.16 1018.89 1018.39 1018.14 1017.91 1017.69 1017.33 1016.86 1016.60 1016.28
Thickness
5527 5522 5518 5511 5510 5514 5520 5526 5532 5538 5544 5549 5557 5568 5569 5565 5564 5563 5564 5569 5577 5588 5598 5602 5608 5613 5615 5617 5617 5619 5621 5621 5621 5620 5617 5617 5618 5619 5621 5622 5625 5625 5626
5520 5514 5510 5509 5506 5506 5510 5515 5518 5524 5530 5534 5542 5549 5551 5546 5542 5539 5540 5543 5552 5566 5578 5587 5597 5599 5608 5607 5609 5611 5612 5613 5614 5610 5606 5605 5604 5609 5616 5617 5620 5620 5618
5510 5508 5505 5503 5503 5501 5503 5502 5505 5510 5515 5520 5525 5531 5530 5525 5523 5522 5524 5524 5530 5541 5555 5568 5580 5591 5598 5597 5603 5603 5607 5605 5604 5605 5605 5602 5607 5607 5609 5610 5612 5612 5614
5507 5500 5497 5496 5496 5494 5490 5491 5493 5496 5501 5503 5508 5504 5501 5500 5498 5499 5502 5504 5509 5519 5530 5544 5557 5570 5574 5582 5589 5596 5594 5598 5593 5591 5593 5594 5595 5601 5600 5604 5604 5603 5606
5507 5497 5490 5487 5487 5487 5487 5483 5484 5485 5484 5485 5487 5488 5485 5484 5483 5483 5487 5490 5491 5500 5507 5518 5529 5544 5555 5563 5568 5574 5576 5581 5584 5584 5582 5579 5579 5580 5582 5592 5592 5594 5597
5504 5496 5488 5484 5480 5478 5480 5479 5477 5476 5473 5472 5472 5470 5471 5472 5474 5471 5473 5475 5476 5483 5487 5498 5506 5520 5533 5541 5547 5548 5552 5559 5562 5565 5566 5565 5567 5570 5570 5569 5572 5571 5579
5503 5494 5487 5480 5475 5470 5470 5472 5470 5466 5464 5463 5461 5459 5462 5463 5460 5459 5458 5456 5461 5468 5474 5479 5489 5496 5508 5523 5523 5529 5532 5534 5539 5542 5545 5548 5550 5551 5555 5554 5553 5555 5560
5503 5493 5481 5476 5470 5464 5460 5461 5460 5458 5456 5454 5453 5451 5449 5451 5451 5449 5448 5445 5444 5453 5456 5459 5471 5481 5486 5497 5502 5514 5508 5511 5512 5520 5523 5534 5528 5531 5538 5538 5537 5536 5541
5504 5491 5479 5469 5461 5457 5451 5450 5449 5449 5447 5444 5443 5442 5441 5437 5436 5437 5436 5436 5437 5444 5445 5449 5459 5467 5475 5482 5488 5488 5489 5491 5491 5498 5501 5505 5506 5512 5514 5514 5516 5519 5525
5501 5488 5476 5465 5456 5447 5443 5439 5439 5438 5436 5434 5432 5431 5430 5430 5429 5428 5427 5428 5431 5433 5437 5440 5446 5450 5458 5462 5465 5468 5475 5473 5477 5478 5479 5484 5487 5488 5490 5492 5493 5492 5496
5499 5483 5472 5460 5450 5441 5434 5429 5426 5426 5424 5422 5421 5421 5419 5418 5417 5417 5418 5418 5418 5419 5425 5426 5432 5436 5435 5443 5446 5455 5459 5456 5465 5465 5466 5467 5469 5471 5472 5472 5474 5474 5473
5499 5484 5468 5454 5443 5435 5427 5419 5415 5414 5412 5411 5410 5409 5408 5408 5407 5405 5405 5406 5409 5410 5409 5411 5414 5417 5420 5422 5426 5431 5434 5439 5447 5447 5449 5449 5449 5452 5456 5457 5456 5455 5457
5495 5478 5462 5447 5437 5428 5418 5412 5405 5402 5400 5398 5399 5397 5396 5394 5393 5394 5396 5396 5397 5398 5399 5398 5400 5402 5406 5409 5415 5417 5424 5426 5430 5426 5425 5431 5431 5434 5437 5436 5437 5442 5446
5487 5467 5452 5440 5429 5419 5411 5403 5396 5390 5387 5386 5385 5384 5383 5382 5381 5381 5382 5383 5385 5386 5387 5388 5390 5394 5396 5399 5401 5406 5408 5410 5407 5406 5411 5413 5415 5415 5417 5417 5420 5428 5429
5475 5456 5442 5431 5418 5406 5399 5392 5385 5380 5375 5373 5370 5368 5368 5369 5369 5369 5369 5369 5369 5369 5370 5372 5376 5378 5381 5384 5384 5385 5392 5391 5389 5393 5397 5397 5397 5396 5397 5401 5403 5404 5408
5467 5449 5433 5420 5408 5397 5388 5379 5373 5368 5364 5361 5358 5356 5355 5356 5355 5355 5355 5355 5354 5354 5355 5357 5357 5358 5359 5359 5361 5363 5367 5372 5375 5376 5378 5377 5380 5383 5381 5385 5384 5383 5388
5454 5437 5422 5408 5394 5379 5371 5367 5361 5355 5352 5349 5346 5343 5342 5340 5340 5338 5339 5340 5340 5340 5340 5341 5341 5342 5343 5345 5346 5348 5350 5350 5354 5358 5359 5357 5360 5359 5364 5363 5365 5367 5376
5431 5417 5403 5388 5374 5365 5357 5350 5345 5342 5339 5336 5333 5330 5328 5327 5325 5324 5323 5323 5323 5323 5324 5324 5325 5324 5323 5323 5321 5321 5324 5329 5334 5337 5335 5336 5339 5339 5339 5340 5344 5347 5354
5409 5396 5380 5367 5354 5346 5338 5332 5328 5327 5325 5322 5319 5316 5314 5312 5310 5309 5307 5307 5307 5305 5305 5305 5306 5306 5306 5305 5305 5304 5304 5307 5311 5312 5313 5313 5314 5313 5315 5319 5323 5330 5333
5375 5365 5356 5346 5333 5325 5318 5315 5313 5312 5310 5306 5302 5299 5297 5295 5295 5293 5292 5292 5291 5289 5287 5287 5285 5285 5285 5284 5284 5283 5284 5287 5291 5291 5288 5290 5292 5292 5290 5290 5295 5301 5302
5348 5341 5330 5325 5317 5309 5303 5301 5300 5299 5292 5288 5286 5284 5282 5279 5277 5276 5275 5274 5274 5272 5269 5268 5266 5265 5265 5264 5261 5260 5261 5259 5262 5263 5262 5262 5262 5263 5263 5262 5266 5269 5273
5324 5317 5310 5304 5297 5292 5290 5288 5286 5281 5276 5272 5270 5268 5266 5265 5262 5260 5257 5254 5253 5252 5250 5248 5246 5244 5244 5243 5242 5240 5238 5235 5236 5234 5233 5233 5232 5233 5235 5237 5239 5243 5247
5304 5297 5291 5286 5281 5278 5275 5272 5269 5264 5260 5258 5257 5255 5251 5248 5245 5242 5239 5234 5231 5228 5225 5223 5221 5220 5218 5216 5214 5213 5211 5207 5207 5207 5209 5212 5212 5213 5214 5213 5216 5218 5221
5286 5278 5273 5269 5267 5263 5258 5255 5251 5249 5246 5243 5241 5237 5233 5230 5226 5221 5216 5212 5207 5204 5200 5197 5195 5194 5192 5189 5187 5187 5186 5185 5185 5186 5187 5190 5192 5194 5196 5197 5198 5200 5202
5267 5261 5257 5256 5252 5246 5243 5240 5237 5234 5231 5227 5223 5219 5215 5210 5206 5202 5196 5190 5184 5180 5177 5174 5172 5170 5168 5166 5165 5165 5165 5165 5165 5168 5170 5172 5175 5177 5179 5181 5184 5188 5190
5250 5248 5244 5240 5236 5233 5230 5226 5221 5217 5213 5209 5206 5200 5195 5192 5188 5184 5179 5171 5167 5163 5159 5155 5152 5151 5150 5150 5150 5149 5149 5150 5149 5151 5153 5158 5158 5159 5160 5164 5168 5170 5173